| time (UTC) | temp C | wind direction | speed KPH | gust KPH | rain 1hr cm | rain 24hr cm | rain mn cm | humidity % | barometer mb |
| 20260504000548 | 20 | 227 | 9.7 | 19.3 | 0.00 | 0.00 | 0.00 | 43 | 1002.9 |
| 20260503235551 | 20 | 222 | 8.0 | 22.5 | 0.00 | 0.00 | 0.00 | 42 | 1002.8 |
| 20260503235051 | 20 | 281 | 9.7 | 22.5 | 0.00 | 0.00 | 0.00 | 43 | 1002.8 |
| 20260503234554 | 20 | 226 | 9.7 | 16.1 | 0.00 | 0.00 | 0.00 | 42 | 1002.8 |
| 20260503234049 | 21 | 231 | 8.0 | 19.3 | 0.00 | 0.00 | 0.00 | 42 | 1002.8 |
| 20260503233549 | 21 | 228 | 9.7 | 20.9 | 0.00 | 0.00 | 0.00 | 42 | 1002.7 |
| 20260503233051 | 21 | 224 | 11.3 | 20.9 | 0.00 | 0.00 | 0.00 | 41 | 1002.7 |
| 20260503232548 | 21 | 247 | 8.0 | 30.6 | 0.00 | 0.00 | 0.00 | 41 | 1002.9 |
| 20260503232048 | 21 | 212 | 14.5 | 30.6 | 0.00 | 0.00 | 0.00 | 41 | 1002.8 |
| 20260503231559 | 21 | 231 | 14.5 | 30.6 | 0.00 | 0.00 | 0.00 | 42 | 1002.8 |
| 20260503231049 | 21 | 261 | 11.3 | 27.4 | 0.00 | 0.00 | 0.00 | 41 | 1002.8 |
| 20260503230549 | 21 | 245 | 16.1 | 27.4 | 0.00 | 0.00 | 0.00 | 42 | 1003.0 |
| 20260503230105 | 20 | 260 | 14.5 | 25.7 | 0.00 | 0.00 | 0.00 | 43 | 1002.9 |
| 20260503225551 | 21 | 222 | 11.3 | 25.7 | 0.00 | 0.00 | 0.00 | 42 | 1003.0 |
| 20260503225049 | 21 | 238 | 6.4 | 25.7 | 0.00 | 0.00 | 0.00 | 43 | 1003.0 |
| 20260503224559 | 20 | 240 | 14.5 | 25.7 | 0.00 | 0.00 | 0.00 | 42 | 1003.1 |
| 20260503224049 | 20 | 243 | 14.5 | 20.9 | 0.00 | 0.00 | 0.00 | 43 | 1003.0 |
| 20260503223549 | 20 | 232 | 9.7 | 35.4 | 0.00 | 0.00 | 0.00 | 43 | 1003.2 |
| 20260503223056 | 20 | 257 | 9.7 | 35.4 | 0.00 | 0.00 | 0.00 | 45 | 1003.1 |
| 20260503222548 | 20 | 271 | 17.7 | 35.4 | 0.00 | 0.00 | 0.00 | 43 | 1003.1 |
| 20260503222048 | 20 | 243 | 12.9 | 25.7 | 0.00 | 0.00 | 0.00 | 44 | 1003.1 |
| 20260503221553 | 20 | 274 | 12.9 | 27.4 | 0.00 | 0.00 | 0.00 | 44 | 1003.2 |
| 20260503221048 | 20 | 237 | 14.5 | 30.6 | 0.00 | 0.00 | 0.00 | 44 | 1003.1 |
| 20260503220549 | 20 | 236 | 17.7 | 32.2 | 0.00 | 0.00 | 0.00 | 44 | 1003.1 |
| 20260503220056 | 20 | 239 | 17.7 | 32.2 | 0.00 | 0.00 | 0.00 | 46 | 1003.2 |
| 20260503215547 | 20 | 252 | 22.5 | 33.8 | 0.00 | 0.00 | 0.00 | 44 | 1003.1 |
| 20260503215050 | 20 | 235 | 11.3 | 33.8 | 0.00 | 0.00 | 0.00 | 46 | 1003.0 |
| 20260503214552 | 20 | 182 | 17.7 | 30.6 | 0.00 | 0.00 | 0.00 | 46 | 1003.0 |
| 20260503214049 | 20 | 224 | 9.7 | 29.0 | 0.00 | 0.00 | 0.00 | 47 | 1003.2 |
| 20260503213549 | 20 | 240 | 20.9 | 29.0 | 0.00 | 0.00 | 0.00 | 46 | 1003.1 |
| 20260503213101 | 20 | 245 | 14.5 | 33.8 | 0.00 | 0.00 | 0.00 | 47 | 1003.2 |
| 20260503212548 | 20 | 233 | 20.9 | 33.8 | 0.00 | 0.00 | 0.00 | 46 | 1003.2 |
| 20260503212048 | 20 | 267 | 17.7 | 24.1 | 0.00 | 0.00 | 0.00 | 46 | 1003.3 |
| 20260503211612 | 20 | 200 | 11.3 | 29.0 | 0.00 | 0.00 | 0.00 | 47 | 1003.4 |
| 20260503211052 | 20 | 245 | 8.0 | 29.0 | 0.00 | 0.00 | 0.00 | 47 | 1003.4 |
| 20260503210549 | 19 | 247 | 17.7 | 29.0 | 0.00 | 0.00 | 0.00 | 46 | 1003.5 |
| 20260503210058 | 19 | 259 | 16.1 | 29.0 | 0.00 | 0.00 | 0.00 | 47 | 1003.6 |
| 20260503205549 | 19 | 237 | 17.7 | 30.6 | 0.00 | 0.00 | 0.00 | 48 | 1003.5 |
| 20260503205049 | 19 | 266 | 19.3 | 30.6 | 0.00 | 0.00 | 0.00 | 49 | 1003.6 |
| 20260503204548 | 19 | 245 | 14.5 | 29.0 | 0.00 | 0.00 | 0.00 | 48 | 1003.6 |
| 20260503204046 | 18 | 242 | 16.1 | 29.0 | 0.00 | 0.00 | 0.00 | 49 | 1003.8 |
| 20260503203547 | 18 | 227 | 16.1 | 33.8 | 0.00 | 0.00 | 0.00 | 49 | 1003.9 |
| 20260503203053 | 18 | 240 | 20.9 | 33.8 | 0.00 | 0.00 | 0.00 | 47 | 1004.0 |
| 20260503202547 | 18 | 226 | 16.1 | 33.8 | 0.00 | 0.00 | 0.00 | 49 | 1004.1 |
| 20260503202045 | 18 | 210 | 17.7 | 33.8 | 0.00 | 0.00 | 0.00 | 50 | 1004.0 |
| 20260503201552 | 18 | 221 | 14.5 | 33.8 | 0.00 | 0.00 | 0.00 | 48 | 1004.2 |
| 20260503201050 | 18 | 241 | 17.7 | 32.2 | 0.00 | 0.00 | 0.00 | 49 | 1004.3 |
| 20260503200548 | 18 | 232 | 17.7 | 33.8 | 0.00 | 0.00 | 0.00 | 48 | 1004.5 |
| 20260503200101 | 18 | 219 | 19.3 | 35.4 | 0.00 | 0.00 | 0.00 | 50 | 1004.5 |
| 20260503195548 | 18 | 241 | 17.7 | 35.4 | 0.00 | 0.00 | 0.00 | 49 | 1004.4 |
| 20260503195048 | 18 | 243 | 16.1 | 40.2 | 0.00 | 0.00 | 0.00 | 49 | 1004.5 |
| 20260503194602 | 18 | 226 | 22.5 | 40.2 | 0.00 | 0.00 | 0.00 | 49 | 1004.5 |
| 20260503194046 | 18 | 225 | 16.1 | 35.4 | 0.00 | 0.00 | 0.00 | 50 | 1004.6 |
| 20260503193545 | 18 | 225 | 20.9 | 35.4 | 0.00 | 0.00 | 0.00 | 49 | 1004.7 |
| 20260503193058 | 18 | 232 | 16.1 | 32.2 | 0.00 | 0.00 | 0.00 | 51 | 1004.7 |
| 20260503192546 | 17 | 228 | 19.3 | 41.8 | 0.00 | 0.00 | 0.00 | 50 | 1004.8 |
| 20260503192047 | 17 | 236 | 25.7 | 41.8 | 0.00 | 0.00 | 0.00 | 49 | 1004.7 |
| 20260503191554 | 17 | 233 | 20.9 | 40.2 | 0.00 | 0.00 | 0.00 | 49 | 1004.8 |
| 20260503191049 | 17 | 200 | 24.1 | 40.2 | 0.00 | 0.00 | 0.00 | 49 | 1004.7 |
| 20260503190548 | 17 | 235 | 24.1 | 38.6 | 0.00 | 0.00 | 0.00 | 49 | 1004.9 |
| 20260503190051 | 17 | 239 | 19.3 | 40.2 | 0.00 | 0.00 | 0.00 | 50 | 1004.9 |
| 20260503185548 | 17 | 182 | 19.3 | 41.8 | 0.00 | 0.00 | 0.00 | 51 | 1005.0 |
| 20260503185048 | 17 | 217 | 22.5 | 41.8 | 0.00 | 0.00 | 0.00 | 49 | 1005.1 |
| 20260503184601 | 17 | 199 | 20.9 | 33.8 | 0.00 | 0.00 | 0.00 | 49 | 1004.9 |
| 20260503184048 | 17 | 221 | 22.5 | 41.8 | 0.00 | 0.00 | 0.00 | 49 | 1005.0 |
| 20260503183549 | 17 | 193 | 19.3 | 41.8 | 0.00 | 0.00 | 0.00 | 49 | 1004.9 |
| 20260503183050 | 17 | 226 | 24.1 | 37.0 | 0.00 | 0.00 | 0.00 | 50 | 1005.1 |
| 20260503182547 | 17 | 240 | 24.1 | 41.8 | 0.00 | 0.00 | 0.00 | 50 | 1005.1 |
| 20260503182048 | 17 | 231 | 22.5 | 41.8 | 0.00 | 0.00 | 0.00 | 52 | 1005.2 |
| 20260503181610 | 17 | 141 | 17.7 | 29.0 | 0.00 | 0.00 | 0.00 | 52 | 1005.2 |
| 20260503181049 | 16 | 192 | 16.1 | 35.4 | 0.00 | 0.00 | 0.00 | 53 | 1005.2 |
| 20260503180547 | 16 | 155 | 17.7 | 35.4 | 0.00 | 0.00 | 0.00 | 54 | 1005.2 |
| 20260503180112 | 16 | 220 | 17.7 | 37.0 | 0.00 | 0.00 | 0.00 | 54 | 1005.5 |
| 20260503175549 | 16 | 217 | 20.9 | 37.0 | 0.00 | 0.00 | 0.00 | 54 | 1005.5 |
| 20260503175048 | 16 | 201 | 16.1 | 33.8 | 0.00 | 0.00 | 0.00 | 56 | 1005.7 |
| 20260503174559 | 16 | 217 | 19.3 | 37.0 | 0.00 | 0.00 | 0.00 | 53 | 1005.8 |
| 20260503174048 | 16 | 191 | 19.3 | 37.0 | 0.00 | 0.00 | 0.00 | 54 | 1005.8 |
| 20260503173548 | 16 | 219 | 20.9 | 38.6 | 0.00 | 0.00 | 0.00 | 52 | 1005.8 |
| 20260503173103 | 16 | 155 | 22.5 | 41.8 | 0.00 | 0.00 | 0.00 | 54 | 1005.9 |
| 20260503172551 | 16 | 219 | 24.1 | 46.7 | 0.00 | 0.00 | 0.00 | 53 | 1005.9 |
| 20260503172048 | 16 | 236 | 24.1 | 46.7 | 0.00 | 0.00 | 0.00 | 52 | 1006.1 |
| 20260503171553 | 16 | 274 | 24.1 | 46.7 | 0.00 | 0.00 | 0.00 | 53 | 1006.1 |
| 20260503171048 | 16 | 211 | 20.9 | 35.4 | 0.00 | 0.00 | 0.00 | 51 | 1006.2 |
| 20260503170549 | 16 | 187 | 12.9 | 48.3 | 0.00 | 0.00 | 0.00 | 53 | 1006.2 |
| 20260503150549 | 12 | 216 | 14.5 | 27.4 | 0.00 | 0.00 | 0.00 | 69 | 1007.9 |
| 20260503150103 | 12 | 217 | 14.5 | 27.4 | 0.00 | 0.00 | 0.00 | 71 | 1008.0 |
| 20260503131049 | 10 | 228 | 16.1 | 27.4 | 0.00 | 0.00 | 0.00 | 68 | 1009.3 |
| 20260503130554 | 10 | 191 | 12.9 | 25.7 | 0.00 | 0.00 | 0.00 | 67 | 1009.4 |
| 20260503110549 | 9 | 219 | 11.3 | 19.3 | 0.00 | 0.00 | 0.00 | 58 | 1009.6 |
| 20260503081553 | 8 | 207 | 6.4 | 14.5 | 0.00 | 0.00 | 0.00 | 56 | 1010.8 |
| 20260503081050 | 8 | 213 | 8.0 | 14.5 | 0.00 | 0.00 | 0.00 | 57 | 1010.9 |
| 20260503080549 | 8 | 171 | 8.0 | 14.5 | 0.00 | 0.00 | 0.00 | 56 | 1010.9 |
| 20260503072551 | 8 | 204 | 6.4 | 11.3 | 0.00 | 0.00 | 0.00 | 57 | 1011.0 |
| 20260503072048 | 8 | 185 | 6.4 | 9.7 | 0.00 | 0.00 | 0.00 | 57 | 1011.0 |
| 20260503071557 | 8 | 177 | 6.4 | 9.7 | 0.00 | 0.00 | 0.00 | 57 | 1011.1 |
| 20260503071052 | 8 | 203 | 4.8 | 9.7 | 0.00 | 0.00 | 0.00 | 56 | 1011.1 |
| 20260503070549 | 8 | 197 | 3.2 | 8.0 | 0.00 | 0.00 | 0.00 | 57 | 1011.2 |
| 20260503055051 | 9 | 203 | 8.0 | 16.1 | 0.00 | 0.00 | 0.00 | 52 | 1011.8 |
| 20260503054553 | 9 | 219 | 6.4 | 16.1 | 0.00 | 0.00 | 0.00 | 52 | 1011.7 |
| 20260503054049 | 9 | 197 | 6.4 | 14.5 | 0.00 | 0.00 | 0.00 | 52 | 1011.7 |
| 20260503053549 | 9 | 199 | 6.4 | 11.3 | 0.00 | 0.00 | 0.00 | 52 | 1011.8 |
| 20260503053050 | 9 | 174 | 6.4 | 14.5 | 0.00 | 0.00 | 0.00 | 52 | 1011.8 |
| 20260503052549 | 9 | 202 | 6.4 | 16.1 | 0.00 | 0.00 | 0.00 | 52 | 1011.8 |
| 20260503052048 | 9 | 167 | 6.4 | 16.1 | 0.00 | 0.00 | 0.00 | 52 | 1012.0 |
| 20260503051550 | 9 | 178 | 8.0 | 16.1 | 0.00 | 0.00 | 0.00 | 52 | 1012.0 |
| 20260503051049 | 9 | 179 | 6.4 | 12.9 | 0.00 | 0.00 | 0.00 | 52 | 1012.0 |
| 20260503050550 | 9 | 185 | 4.8 | 11.3 | 0.00 | 0.00 | 0.00 | 52 | 1012.0 |
| 20260503050056 | 9 | 196 | 4.8 | 11.3 | 0.00 | 0.00 | 0.00 | 51 | 1012.1 |
| 20260503045548 | 9 | 180 | 4.8 | 11.3 | 0.00 | 0.00 | 0.00 | 51 | 1012.1 |
| 20260503045046 | 10 | 193 | 6.4 | 11.3 | 0.00 | 0.00 | 0.00 | 51 | 1012.1 |
| 20260503044559 | 9 | 181 | 4.8 | 11.3 | 0.00 | 0.00 | 0.00 | 51 | 1012.1 |
| 20260503044050 | 10 | 193 | 4.8 | 11.3 | 0.00 | 0.00 | 0.00 | 51 | 1012.2 |
| 20260503043549 | 9 | 180 | 4.8 | 11.3 | 0.00 | 0.00 | 0.00 | 51 | 1012.3 |
| 20260503043054 | 10 | 196 | 4.8 | 11.3 | 0.00 | 0.00 | 0.00 | 51 | 1012.3 |
| 20260503042549 | 9 | 175 | 4.8 | 11.3 | 0.00 | 0.00 | 0.00 | 51 | 1012.4 |
| 20260503042049 | 9 | 172 | 4.8 | 8.0 | 0.00 | 0.00 | 0.00 | 52 | 1012.3 |
| 20260503041550 | 9 | 193 | 4.8 | 6.4 | 0.00 | 0.00 | 0.00 | 51 | 1012.4 |
| 20260503041048 | 9 | 184 | 3.2 | 8.0 | 0.00 | 0.00 | 0.00 | 51 | 1012.5 |
| 20260503040546 | 9 | 148 | 4.8 | 8.0 | 0.00 | 0.00 | 0.00 | 51 | 1012.4 |
| 20260503035546 | 9 | 179 | 4.8 | 8.0 | 0.00 | 0.00 | 0.00 | 51 | 1012.5 |
| 20260503035046 | 9 | 181 | 3.2 | 8.0 | 0.00 | 0.00 | 0.00 | 51 | 1012.7 |
| 20260503034601 | 9 | 212 | 3.2 | 9.7 | 0.00 | 0.00 | 0.00 | 51 | 1012.7 |
| 20260503034049 | 9 | 206 | 3.2 | 9.7 | 0.00 | 0.00 | 0.00 | 51 | 1012.7 |
| 20260503033553 | 9 | 175 | 1.6 | 6.4 | 0.00 | 0.00 | 0.00 | 51 | 1012.7 |
| 20260503033057 | 9 | 175 | 3.2 | 6.4 | 0.00 | 0.00 | 0.00 | 51 | 1012.8 |
| 20260503032550 | 9 | 186 | 3.2 | 6.4 | 0.00 | 0.00 | 0.00 | 52 | 1012.8 |
| 20260503032050 | 9 | 184 | 1.6 | 6.4 | 0.00 | 0.00 | 0.00 | 52 | 1012.9 |
| 20260503031550 | 9 | 171 | 3.2 | 6.4 | 0.00 | 0.00 | 0.00 | 52 | 1012.9 |
| 20260503031047 | 9 | 205 | 3.2 | 4.8 | 0.00 | 0.00 | 0.00 | 52 | 1013.0 |
| 20260503030548 | 9 | 196 | 3.2 | 4.8 | 0.00 | 0.00 | 0.00 | 52 | 1013.1 |
| 20260503030124 | 9 | 184 | 1.6 | 4.8 | 0.00 | 0.00 | 0.00 | 52 | 1013.0 |
| 20260503025549 | 9 | 179 | 3.2 | 4.8 | 0.00 | 0.00 | 0.00 | 52 | 1013.1 |
| 20260503025049 | 9 | 181 | 3.2 | 4.8 | 0.00 | 0.00 | 0.00 | 52 | 1013.1 |
| 20260503024557 | 9 | 190 | 3.2 | 4.8 | 0.00 | 0.00 | 0.00 | 53 | 1013.1 |
| 20260503024046 | 9 | 152 | 1.6 | 4.8 | 0.00 | 0.00 | 0.00 | 53 | 1013.1 |
| 20260503023549 | 9 | 211 | 1.6 | 3.2 | 0.00 | 0.00 | 0.00 | 54 | 1013.1 |
| 20260503023054 | 9 | 213 | 0.0 | 1.6 | 0.00 | 0.00 | 0.00 | 54 | 1013.1 |
| 20260503022548 | 9 | 213 | 0.0 | 1.6 | 0.00 | 0.00 | 0.00 | 53 | 1013.1 |
| 20260503022049 | 9 | 0 | 0.0 | 1.6 | 0.00 | 0.00 | 0.00 | 54 | 1013.1 |
| 20260503021552 | 9 | 0 | 0.0 | 1.6 | 0.00 | 0.00 | 0.00 | 53 | 1013.1 |
| 20260503021047 | 9 | 213 | 0.0 | 1.6 | 0.00 | 0.00 | 0.00 | 53 | 1013.1 |
| 20260503020548 | 9 | 213 | 0.0 | 3.2 | 0.00 | 0.00 | 0.00 | 53 | 1013.1 |
| 20260503020055 | 10 | 213 | 1.6 | 3.2 | 0.00 | 0.00 | 0.00 | 52 | 1013.0 |
| 20260503015547 | 9 | 213 | 0.0 | 1.6 | 0.00 | 0.00 | 0.00 | 52 | 1013.1 |
| 20260503015046 | 10 | 0 | 0.0 | 1.6 | 0.00 | 0.00 | 0.00 | 51 | 1013.0 |
| 20260503014607 | 10 | 0 | 0.0 | 1.6 | 0.00 | 0.00 | 0.00 | 51 | 1012.9 |
| 20260503014047 | 10 | 0 | 0.0 | 1.6 | 0.00 | 0.00 | 0.00 | 50 | 1012.9 |
| 20260503013547 | 10 | 0 | 0.0 | 1.6 | 0.00 | 0.00 | 0.00 | 49 | 1012.9 |
| 20260503013052 | 11 | 0 | 0.0 | 3.2 | 0.00 | 0.00 | 0.00 | 49 | 1012.8 |
| 20260503012546 | 11 | 0 | 0.0 | 6.4 | 0.00 | 0.00 | 0.00 | 49 | 1012.8 |
| 20260503012045 | 11 | 213 | 1.6 | 6.4 | 0.00 | 0.00 | 0.00 | 47 | 1012.8 |
| 20260503011555 | 11 | 213 | 3.2 | 6.4 | 0.00 | 0.00 | 0.00 | 47 | 1012.8 |
| 20260503011047 | 11 | 224 | 1.6 | 6.4 | 0.00 | 0.00 | 0.00 | 46 | 1012.7 |
| 20260503010545 | 12 | 224 | 1.6 | 6.4 | 0.00 | 0.00 | 0.00 | 46 | 1012.8 |
| 20260503010108 | 12 | 224 | 3.2 | 9.7 | 0.00 | 0.00 | 0.00 | 45 | 1012.7 |
| 20260503005548 | 12 | 224 | 6.4 | 11.3 | 0.00 | 0.00 | 0.00 | 44 | 1012.7 |
| 20260503005049 | 12 | 232 | 3.2 | 11.3 | 0.00 | 0.00 | 0.00 | 44 | 1012.8 |
| 20260503004557 | 12 | 210 | 4.8 | 11.3 | 0.00 | 0.00 | 0.00 | 43 | 1012.8 |
| 20260503004048 | 12 | 219 | 8.0 | 11.3 | 0.00 | 0.00 | 0.00 | 43 | 1012.7 |
| 20260503003548 | 13 | 244 | 8.0 | 14.5 | 0.00 | 0.00 | 0.00 | 42 | 1012.6 |
| 20260503003118 | 13 | 233 | 6.4 | 16.1 | 0.00 | 0.00 | 0.00 | 41 | 1012.8 |
| 20260503002548 | 13 | 222 | 9.7 | 17.7 | 0.00 | 0.00 | 0.00 | 41 | 1012.7 |
| 20260503002049 | 13 | 228 | 8.0 | 17.7 | 0.00 | 0.00 | 0.00 | 41 | 1012.8 |
| 20260503001553 | 13 | 225 | 11.3 | 17.7 | 0.00 | 0.00 | 0.00 | 40 | 1012.9 |
| 20260503001051 | 13 | 235 | 9.7 | 16.1 | 0.00 | 0.00 | 0.00 | 40 | 1012.9 |